Time,TemperatureF,DewpointF,PressureIn,WindDirection,WindDirectionDegrees,WindSpeedMPH,WindSpeedGustMPH,Humidity,HourlyPrecipIn,Conditions,Clouds,dailyrainin,SoftwareType,DateUTC
2013-01-24 00:03:00,5.0,0.0,-100.00,NNE,15,17.0,22.0,77,0.00,,,0.00,,2013-01-24 00:03:00,
2013-01-24 00:12:00,4.0,-2.0,-100.00,NNE,20,19.0,22.0,77,0.00,,,0.00,,2013-01-24 00:12:00,
2013-01-24 00:22:00,4.0,-2.0,-100.00,NNE,25,17.0,21.0,77,0.00,,,0.00,,2013-01-24 00:22:00,
2013-01-24 00:32:00,3.0,-2.0,-100.00,NNE,30,16.0,21.0,77,0.00,,,0.00,,2013-01-24 00:32:00,
2013-01-24 00:42:00,3.0,-2.0,-100.00,NNE,25,16.0,21.0,77,0.00,,,0.00,,2013-01-24 00:42:00,
2013-01-24 00:52:00,3.0,-2.0,-100.00,NNE,20,16.0,22.0,78,0.00,,,0.00,,2013-01-24 00:52:00,
2013-01-24 01:03:00,2.0,-2.0,-100.00,NE,40,16.0,20.0,78,0.00,,,0.00,,2013-01-24 01:03:00,
2013-01-24 01:12:00,2.0,-2.0,-100.00,NNE,30,17.0,20.0,78,0.00,,,0.00,,2013-01-24 01:12:00,
2013-01-24 01:23:00,2.0,-4.0,-100.00,NNE,15,17.0,21.0,78,0.00,,,0.00,,2013-01-24 01:23:00,
2013-01-24 01:33:00,1.0,-4.0,-100.00,NNE,25,16.0,21.0,78,0.00,,,0.00,,2013-01-24 01:33:00,
2013-01-24 01:42:00,1.0,-4.0,-100.00,NNE,25,17.0,21.0,78,0.00,,,0.00,,2013-01-24 01:42:00,
2013-01-24 01:52:00,1.0,-4.0,-100.00,NNE,20,17.0,23.0,77,0.00,,,0.00,,2013-01-24 01:52:00,
2013-01-24 02:02:00,1.0,-4.0,-100.00,NNE,15,17.0,24.0,76,0.00,,,0.00,,2013-01-24 02:02:00,
2013-01-24 02:12:00,1.0,-6.0,-100.00,NNE,15,15.0,22.0,76,0.00,,,0.00,,2013-01-24 02:12:00,
2013-01-24 02:22:00,0.0,-6.0,-100.00,NNE,15,15.0,21.0,75,0.00,,,0.00,,2013-01-24 02:22:00,
2013-01-24 02:33:00,0.0,-6.0,-100.00,NNE,20,14.0,19.0,75,0.00,,,0.00,,2013-01-24 02:33:00,
2013-01-24 02:42:00,0.0,-6.0,-100.00,NNE,20,14.0,19.0,75,0.00,,,0.00,,2013-01-24 02:42:00,
2013-01-24 02:52:00,0.0,-6.0,-100.00,NNE,20,14.0,19.0,75,0.00,,,0.00,,2013-01-24 02:52:00,
2013-01-24 03:02:00,0.0,-6.0,-100.00,NNE,20,11.0,14.0,75,0.00,,,0.00,,2013-01-24 03:02:00,
2013-01-24 03:12:00,-1.0,-6.0,-100.00,NNE,30,17.0,20.0,75,0.00,,,0.00,,2013-01-24 03:12:00,
2013-01-24 03:22:00,-1.0,-8.0,-100.00,NNE,20,14.0,21.0,74,0.00,,,0.00,,2013-01-24 03:22:00,
2013-01-24 03:32:00,-1.0,-8.0,-100.00,NNE,20,16.0,22.0,73,0.00,,,0.00,,2013-01-24 03:32:00,
2013-01-24 03:43:00,-2.0,-8.0,-100.00,NNE,15,16.0,21.0,72,0.00,,,0.00,,2013-01-24 03:43:00,
2013-01-24 03:52:00,-2.0,-9.0,-100.00,NNE,20,18.0,21.0,72,0.00,,,0.00,,2013-01-24 03:52:00,
2013-01-24 04:02:00,-2.0,-9.0,-100.00,NNE,20,19.0,26.0,71,0.00,,,0.00,,2013-01-24 04:02:00,
2013-01-24 04:12:00,-3.0,-9.0,-100.00,NNE,25,17.0,22.0,70,0.00,,,0.00,,2013-01-24 04:12:00,
2013-01-24 04:22:00,-3.0,-11.0,-100.00,NNE,20,16.0,21.0,70,0.00,,,0.00,,2013-01-24 04:22:00,
2013-01-24 04:32:00,-3.0,-11.0,-100.00,NNE,20,15.0,17.0,69,0.00,,,0.00,,2013-01-24 04:32:00,
2013-01-24 04:42:00,-3.0,-11.0,-100.00,North,10,16.0,19.0,68,0.00,,,0.00,,2013-01-24 04:42:00,
2013-01-24 04:52:00,-3.0,-11.0,-100.00,NNE,15,10.0,17.0,68,0.00,,,0.00,,2013-01-24 04:52:00,
2013-01-24 05:03:00,-4.0,-11.0,-100.00,NNE,25,17.0,19.0,68,0.00,,,0.00,,2013-01-24 05:03:00,
2013-01-24 05:12:00,-4.0,-11.0,-100.00,NE,35,16.0,19.0,68,0.00,,,0.00,,2013-01-24 05:12:00,
2013-01-24 05:22:00,-4.0,-11.0,-100.00,NNE,30,14.0,18.0,70,0.00,,,0.00,,2013-01-24 05:22:00,
2013-01-24 05:32:00,-4.0,-11.0,-100.00,NE,40,14.0,18.0,71,0.00,,,0.00,,2013-01-24 05:32:00,
2013-01-24 05:42:00,-5.0,-11.0,-100.00,NE,45,16.0,19.0,71,0.00,,,0.00,,2013-01-24 05:42:00,
2013-01-24 05:52:00,-5.0,-11.0,-100.00,NE,45,12.0,18.0,71,0.00,,,0.00,,2013-01-24 05:52:00,
2013-01-24 06:02:00,-5.0,-11.0,-100.00,NE,45,15.0,19.0,71,0.00,,,0.00,,2013-01-24 06:02:00,
2013-01-24 06:12:00,-5.0,-13.0,-100.00,NE,55,12.0,16.0,71,0.00,,,0.00,,2013-01-24 06:12:00,
2013-01-24 06:22:00,-6.0,-13.0,-100.00,NE,45,15.0,18.0,72,0.00,,,0.00,,2013-01-24 06:22:00,
2013-01-24 06:32:00,-6.0,-13.0,-100.00,NE,50,12.0,17.0,72,0.00,,,0.00,,2013-01-24 06:32:00,
2013-01-24 06:42:00,-6.0,-13.0,-100.00,NE,50,12.0,16.0,73,0.00,,,0.00,,2013-01-24 06:42:00,
2013-01-24 06:52:00,-6.0,-13.0,-100.00,NE,55,12.0,15.0,73,0.00,,,0.00,,2013-01-24 06:52:00,
2013-01-24 07:02:00,-6.0,-13.0,-100.00,ENE,65,12.0,16.0,74,0.00,,,0.00,,2013-01-24 07:02:00,
2013-01-24 07:12:00,-6.0,-13.0,-100.00,ENE,60,12.0,16.0,74,0.00,,,0.00,,2013-01-24 07:12:00,
2013-01-24 07:22:00,-6.0,-13.0,-100.00,ENE,60,11.0,14.0,74,0.00,,,0.00,,2013-01-24 07:22:00,
2013-01-24 07:33:00,-6.0,-13.0,-100.00,NE,50,11.0,17.0,74,0.00,,,0.00,,2013-01-24 07:33:00,
2013-01-24 07:42:00,-6.0,-13.0,-100.00,NE,55,9.0,13.0,74,0.00,,,0.00,,2013-01-24 07:42:00,
2013-01-24 07:52:00,-6.0,-13.0,-100.00,ENE,70,7.0,14.0,74,0.00,,,0.00,,2013-01-24 07:52:00,
2013-01-24 08:02:00,-6.0,-13.0,-100.00,NE,55,10.0,12.0,74,0.00,,,0.00,,2013-01-24 08:02:00,
2013-01-24 08:12:00,-6.0,-11.0,-100.00,ENE,65,10.0,14.0,74,0.00,,,0.00,,2013-01-24 08:12:00,
2013-01-24 08:22:00,-6.0,-11.0,-100.00,NE,55,9.0,12.0,74,0.00,,,0.00,,2013-01-24 08:22:00,
2013-01-24 08:32:00,-6.0,-11.0,-100.00,ENE,60,9.0,12.0,74,0.00,,,0.00,,2013-01-24 08:32:00,
2013-01-24 08:42:00,-6.0,-11.0,-100.00,NE,55,7.0,13.0,74,0.00,,,0.00,,2013-01-24 08:42:00,
2013-01-24 08:52:00,-6.0,-11.0,-100.00,ENE,75,7.0,10.0,74,0.00,,,0.00,,2013-01-24 08:52:00,
2013-01-24 09:02:00,-6.0,-11.0,-100.00,ENE,70,8.0,11.0,74,0.00,,,0.00,,2013-01-24 09:02:00,
2013-01-24 09:12:00,-6.0,-11.0,-100.00,East,80,7.0,10.0,74,0.00,,,0.00,,2013-01-24 09:12:00,
2013-01-24 09:22:00,-5.0,-11.0,-100.00,East,85,7.0,9.0,74,0.00,,,0.00,,2013-01-24 09:22:00,
2013-01-24 09:33:00,-5.0,-11.0,-100.00,ESE,105,4.0,7.0,74,0.00,,,0.00,,2013-01-24 09:33:00,
2013-01-24 09:42:00,-5.0,-11.0,-100.00,East,85,5.0,9.0,73,0.00,,,0.00,,2013-01-24 09:42:00,
2013-01-24 09:52:00,-5.0,-11.0,-100.00,ESE,115,7.0,9.0,73,0.00,,,0.00,,2013-01-24 09:52:00,
2013-01-24 10:02:00,-5.0,-11.0,-100.00,ESE,110,6.0,9.0,73,0.00,,,0.00,,2013-01-24 10:02:00,
2013-01-24 10:12:00,-5.0,-11.0,-100.00,ESE,120,6.0,7.0,74,0.00,,,0.00,,2013-01-24 10:12:00,
2013-01-24 10:22:00,-5.0,-11.0,-100.00,SE,125,6.0,7.0,74,0.00,,,0.00,,2013-01-24 10:22:00,
2013-01-24 10:33:00,-5.0,-11.0,-100.00,SE,135,6.0,8.0,74,0.00,,,0.00,,2013-01-24 10:33:00,
2013-01-24 10:43:00,-5.0,-11.0,-100.00,SE,135,5.0,9.0,74,0.00,,,0.00,,2013-01-24 10:43:00,
2013-01-24 10:52:00,-5.0,-11.0,-100.00,ESE,115,4.0,6.0,74,0.00,,,0.00,,2013-01-24 10:52:00,
2013-01-24 11:02:00,-5.0,-11.0,-100.00,East,100,6.0,9.0,74,0.00,,,0.00,,2013-01-24 11:02:00,
2013-01-24 11:12:00,-4.0,-9.0,-100.00,East,100,6.0,9.0,74,0.00,,,0.00,,2013-01-24 11:12:00,
2013-01-24 11:22:00,-4.0,-9.0,-100.00,ESE,110,6.0,9.0,75,0.00,,,0.00,,2013-01-24 11:22:00,
2013-01-24 11:33:00,-4.0,-9.0,-100.00,East,100,7.0,9.0,75,0.00,,,0.00,,2013-01-24 11:33:00,
2013-01-24 11:43:00,-4.0,-9.0,-100.00,ESE,115,6.0,9.0,75,0.00,,,0.00,,2013-01-24 11:43:00,
2013-01-24 11:52:00,-4.0,-9.0,-100.00,ESE,115,6.0,10.0,75,0.00,,,0.00,,2013-01-24 11:52:00,
2013-01-24 12:03:00,-4.0,-9.0,-100.00,ESE,120,9.0,12.0,75,0.00,,,0.00,,2013-01-24 12:03:00,
2013-01-24 12:12:00,-4.0,-9.0,-100.00,East,95,9.0,12.0,75,0.00,,,0.00,,2013-01-24 12:12:00,
2013-01-24 12:22:00,-3.0,-9.0,-100.00,East,100,7.0,12.0,75,0.00,,,0.00,,2013-01-24 12:22:00,
2013-01-24 12:33:00,-3.0,-9.0,-100.00,East,95,9.0,12.0,75,0.00,,,0.00,,2013-01-24 12:33:00,
2013-01-24 12:42:00,-3.0,-9.0,-100.00,ESE,115,9.0,13.0,75,0.00,,,0.00,,2013-01-24 12:42:00,
2013-01-24 12:53:00,-3.0,-9.0,-100.00,ESE,105,9.0,13.0,75,0.00,,,0.00,,2013-01-24 12:53:00,
2013-01-24 13:03:00,-3.0,-9.0,-100.00,East,95,9.0,14.0,75,0.00,,,0.00,,2013-01-24 13:03:00,
2013-01-24 13:12:00,-3.0,-9.0,-100.00,ESE,105,11.0,14.0,75,0.00,,,0.00,,2013-01-24 13:12:00,
2013-01-24 13:22:00,-3.0,-9.0,-100.00,ESE,120,12.0,14.0,76,0.00,,,0.00,,2013-01-24 13:22:00,
2013-01-24 13:33:00,-3.0,-8.0,-100.00,ESE,115,11.0,16.0,76,0.00,,,0.00,,2013-01-24 13:33:00,
2013-01-24 13:42:00,-3.0,-8.0,-100.00,SE,125,12.0,15.0,76,0.00,,,0.00,,2013-01-24 13:42:00,
2013-01-24 13:52:00,-2.0,-8.0,-100.00,SE,130,8.0,17.0,76,0.00,,,0.00,,2013-01-24 13:52:00,
2013-01-24 14:02:00,-3.0,-8.0,-100.00,SE,130,12.0,16.0,76,0.00,,,0.00,,2013-01-24 14:02:00,
2013-01-24 14:12:00,-2.0,-8.0,-100.00,SE,135,12.0,14.0,77,0.00,,,0.00,,2013-01-24 14:12:00,
2013-01-24 14:22:00,-2.0,-8.0,-100.00,SE,140,13.0,14.0,77,0.00,,,0.00,,2013-01-24 14:22:00,
2013-01-24 14:33:00,-2.0,-8.0,-100.00,SE,135,12.0,15.0,77,0.00,,,0.00,,2013-01-24 14:33:00,
2013-01-24 14:43:00,-2.0,-8.0,-100.00,SSE,150,12.0,17.0,77,0.00,,,0.00,,2013-01-24 14:43:00,
2013-01-24 14:53:00,-2.0,-8.0,-100.00,SE,140,14.0,16.0,77,0.00,,,0.00,,2013-01-24 14:53:00,
2013-01-24 15:03:00,-1.0,-8.0,-100.00,SE,145,14.0,18.0,77,0.00,,,0.00,,2013-01-24 15:03:00,
2013-01-24 15:12:00,-1.0,-6.0,-100.00,SSE,155,14.0,17.0,77,0.00,,,0.00,,2013-01-24 15:12:00,
2013-01-24 15:22:00,-1.0,-6.0,-100.00,SE,145,14.0,17.0,76,0.00,,,0.00,,2013-01-24 15:22:00,
2013-01-24 15:33:00,0.0,-6.0,-100.00,SE,145,13.0,17.0,76,0.00,,,0.00,,2013-01-24 15:33:00,
2013-01-24 15:43:00,0.0,-6.0,-100.00,SE,145,16.0,18.0,76,0.00,,,0.00,,2013-01-24 15:43:00,
2013-01-24 15:52:00,0.0,-6.0,-100.00,SSE,155,16.0,20.0,76,0.00,,,0.00,,2013-01-24 15:52:00,
2013-01-24 16:03:00,0.0,-6.0,-100.00,SSE,150,14.0,20.0,76,0.00,,,0.00,,2013-01-24 16:03:00,
2013-01-24 16:12:00,0.0,-6.0,-100.00,SSE,150,16.0,19.0,76,0.00,,,0.00,,2013-01-24 16:12:00,
2013-01-24 16:22:00,1.0,-6.0,-100.00,SSE,150,16.0,21.0,76,0.00,,,0.00,,2013-01-24 16:22:00,
2013-01-24 16:33:00,1.0,-4.0,-100.00,SSE,155,15.0,21.0,76,0.00,,,0.00,,2013-01-24 16:33:00,
2013-01-24 16:42:00,1.0,-4.0,-100.00,SSE,155,15.0,21.0,76,0.00,,,0.00,,2013-01-24 16:42:00,
2013-01-24 17:02:00,2.0,-4.0,-100.00,SSE,165,17.0,24.0,73,0.00,,,0.00,,2013-01-24 17:02:00,
2013-01-24 17:12:00,2.0,-4.0,-100.00,SSE,155,17.0,22.0,73,0.00,,,0.00,,2013-01-24 17:12:00,
2013-01-24 17:21:00,2.0,-4.0,-100.00,SSE,155,17.0,22.0,73,0.00,,,0.00,,2013-01-24 17:21:00,
2013-01-24 17:32:00,3.0,-4.0,-100.00,South,175,15.0,23.0,73,0.00,,,0.00,,2013-01-24 17:32:00,
2013-01-24 17:42:00,3.0,-4.0,-100.00,South,170,19.0,23.0,73,0.00,,,0.00,,2013-01-24 17:42:00,
2013-01-24 17:52:00,4.0,-4.0,-100.00,South,175,19.0,23.0,72,0.00,,,0.00,,2013-01-24 17:52:00,
2013-01-24 18:02:00,4.0,-2.0,-100.00,South,180,17.0,23.0,72,0.00,,,0.00,,2013-01-24 18:02:00,
2013-01-24 18:12:00,5.0,-2.0,-100.00,South,180,17.0,23.0,72,0.00,,,0.00,,2013-01-24 18:12:00,
2013-01-24 18:22:00,5.0,-2.0,-100.00,South,170,20.0,24.0,72,0.00,,,0.00,,2013-01-24 18:22:00,
2013-01-24 18:32:00,5.0,-2.0,-100.00,South,170,19.0,24.0,71,0.00,,,0.00,,2013-01-24 18:32:00,
2013-01-24 18:42:00,6.0,-2.0,-100.00,South,175,21.0,25.0,71,0.00,,,0.00,,2013-01-24 18:42:00,
2013-01-24 18:52:00,6.0,0.0,-100.00,SSE,160,17.0,23.0,71,0.00,,,0.00,,2013-01-24 18:52:00,
2013-01-24 19:02:00,6.0,0.0,-100.00,South,175,22.0,26.0,72,0.00,,,0.00,,2013-01-24 19:02:00,
2013-01-24 19:12:00,6.0,0.0,-100.00,South,170,21.0,26.0,72,0.00,,,0.00,,2013-01-24 19:12:00,
2013-01-24 19:22:00,6.0,0.0,-100.00,South,170,21.0,26.0,72,0.00,,,0.00,,2013-01-24 19:22:00,
2013-01-24 19:33:00,6.0,0.0,-100.00,South,170,21.0,25.0,72,0.00,,,0.00,,2013-01-24 19:33:00,
2013-01-24 19:42:00,7.0,0.0,-100.00,South,180,19.0,24.0,72,0.00,,,0.00,,2013-01-24 19:42:00,
2013-01-24 19:52:00,8.0,1.0,-100.00,South,170,19.0,26.0,72,0.00,,,0.00,,2013-01-24 19:52:00,
2013-01-24 20:02:00,8.0,1.0,-100.00,South,180,20.0,25.0,71,0.00,,,0.00,,2013-01-24 20:02:00,
2013-01-24 20:11:00,9.0,1.0,-100.00,South,175,22.0,26.0,71,0.00,,,0.00,,2013-01-24 20:11:00,
2013-01-24 20:22:00,9.0,1.0,-100.00,South,185,19.0,26.0,71,0.00,,,0.00,,2013-01-24 20:22:00,
2013-01-24 20:32:00,9.0,1.0,-100.00,SSE,165,18.0,26.0,71,0.00,,,0.00,,2013-01-24 20:32:00,
2013-01-24 20:42:00,8.0,1.0,-100.00,SSE,165,21.0,27.0,71,0.00,,,0.00,,2013-01-24 20:42:00,
2013-01-24 20:52:00,9.0,1.0,-100.00,SSE,160,17.0,23.0,72,0.00,,,0.00,,2013-01-24 20:52:00,
2013-01-24 21:02:00,9.0,1.0,-100.00,South,170,22.0,26.0,72,0.00,,,0.00,,2013-01-24 21:02:00,
2013-01-24 21:12:00,9.0,1.0,-100.00,South,170,22.0,28.0,72,0.00,,,0.00,,2013-01-24 21:12:00,
2013-01-24 21:22:00,9.0,1.0,-100.00,SSE,165,20.0,28.0,72,0.00,,,0.00,,2013-01-24 21:22:00,
2013-01-24 21:33:00,9.0,1.0,-100.00,South,175,24.0,29.0,72,0.00,,,0.00,,2013-01-24 21:33:00,
2013-01-24 21:42:00,9.0,1.0,-100.00,SSE,160,20.0,29.0,72,0.00,,,0.00,,2013-01-24 21:42:00,
2013-01-24 21:52:00,9.0,1.0,-100.00,South,170,23.0,29.0,72,0.00,,,0.00,,2013-01-24 21:52:00,
2013-01-24 22:03:00,9.0,1.0,-100.00,South,175,23.0,28.0,72,0.00,,,0.00,,2013-01-24 22:03:00,
2013-01-24 22:12:00,9.0,3.0,-100.00,South,170,16.0,29.0,72,0.00,,,0.00,,2013-01-24 22:12:00,
2013-01-24 22:22:00,9.0,3.0,-100.00,South,170,21.0,26.0,73,0.00,,,0.00,,2013-01-24 22:22:00,
2013-01-24 22:32:00,10.0,3.0,-100.00,SSE,165,17.0,26.0,73,0.00,,,0.00,,2013-01-24 22:32:00,
2013-01-24 22:42:00,10.0,3.0,-100.00,SSE,165,17.0,26.0,73,0.00,,,0.00,,2013-01-24 22:42:00,
2013-01-24 22:52:00,10.0,3.0,-100.00,South,175,17.0,27.0,73,0.00,,,0.00,,2013-01-24 22:52:00,
2013-01-24 23:02:00,10.0,3.0,-100.00,South,170,21.0,28.0,73,0.00,,,0.00,,2013-01-24 23:02:00,
2013-01-24 23:12:00,10.0,3.0,-100.00,SSE,165,19.0,28.0,73,0.00,,,0.00,,2013-01-24 23:12:00,
2013-01-24 23:22:00,10.0,3.0,-100.00,South,170,22.0,27.0,73,0.00,,,0.00,,2013-01-24 23:22:00,
2013-01-24 23:32:00,10.0,3.0,-100.00,South,170,25.0,30.0,73,0.00,,,0.00,,2013-01-24 23:32:00,
2013-01-24 23:42:00,10.0,3.0,-100.00,South,175,21.0,30.0,73,0.00,,,0.00,,2013-01-24 23:42:00,
2013-01-24 23:52:00,11.0,3.0,-100.00,SSE,165,22.0,30.0,74,0.00,,,0.00,,2013-01-24 23:52:00,